Weather History for KDET - February, 2013

Change the Weather History Date:

Wednesday, February 20, 2013

  Actual Average Record
Temperature  
Mean Temperature 20 °F -  
Max Temperature 23 °F 36 °F 59 °F (1983)
Min Temperature 17 °F 23 °F -9 °F (2015)
Degree Days  
Heating Degree Days 45    
Moisture  
Dew Point 9 °F    
Average Humidity 63    
Maximum Humidity 78    
Minimum Humidity 50    
Precipitation  
Precipitation 0.00 in - - ()
Sea Level Pressure  
Sea Level Pressure 30.25 in    
Wind  
Wind Speed 14 mph (WNW)    
Max Wind Speed 17 mph    
Max Gust Speed 29 mph    
Visibility 9 miles    
Events Snow    
Averages and records for this station are not official NWS values.
T = Trace of Precipitation, MM = Missing Value Source: NWS Daily Summary

Daily Weather History Graph

Daily Weather History Graph

Search for Another Location

Airport or City:

Trip Planner

Search our weather history database for the weather conditions in past years. The results will help you decide how hot, cold, wet, or windy it might be!

Date:

Astronomy

Feb. 20, 2013 Rise Set
Actual Time 7:21 AM EST 6:11 PM EST
Civil Twilight 6:52 AM EST 6:39 PM EST
Nautical Twilight 6:19 AM EST 7:12 PM EST
Astronomical Twilight 5:47 AM EST 7:44 PM EST
Moon 1:27 PM EST (2/20) 3:44 AM EST (2/20)
Length of Visible Light 11h 47m
Length of Day
10h 49m
Waxing Gibbous, 76% of the Moon is Illuminated
Feb 20
Waxing Gibbous
Feb 25
Full
Mar 4
Last Quarter
Mar 11
New
Mar 19
First Quarter

Hourly Weather History & Observations

Time (EST) Temp. Windchill Dew Point Humidity Pressure Visibility Wind Dir Wind Speed Gust Speed Precip Events Conditions
12:10 AM 19.4 °F 6.0 °F 10.4 °F 68% 29.91 in 10.0 mi West 13.8 mph 23.0 mph N/A   Overcast
12:53 AM 19.9 °F 5.2 °F 9.0 °F 62% 29.95 in 10.0 mi West 17.3 mph 25.3 mph N/A   Overcast
1:53 AM 19.0 °F 5.0 °F 9.0 °F 65% 29.96 in 10.0 mi West 15.0 mph 28.8 mph N/A   Overcast
2:53 AM 19.0 °F 5.6 °F 10.9 °F 71% 29.98 in 10.0 mi West 13.8 mph 26.5 mph N/A   Mostly Cloudy
3:03 AM 19.4 °F 6.0 °F 10.4 °F 68% 29.95 in 10.0 mi West 13.8 mph 20.7 mph N/A   Mostly Cloudy
3:53 AM 19.0 °F 4.5 °F 10.0 °F 68% 29.98 in 10.0 mi West 16.1 mph 28.8 mph N/A   Overcast
4:31 AM 17.6 °F 4.3 °F 10.4 °F 73% 29.97 in 4.0 mi West 12.7 mph 20.7 mph 0.00 in Snow Light Snow
4:53 AM 18.0 °F 4.2 °F 12.0 °F 78% 30.01 in 5.0 mi West 13.8 mph 21.9 mph 0.00 in Snow Light Snow
5:03 AM 17.6 °F 2.2 °F 10.4 °F 73% 29.99 in 8.0 mi West 17.3 mph 26.5 mph 0.00 in Snow Light Snow
5:53 AM 17.1 °F 2.5 °F 7.0 °F 65% 30.75 in 10.0 mi WNW 15.0 mph 20.7 mph 0.00 in   Mostly Cloudy
6:53 AM 17.1 °F 3.0 °F 9.0 °F 71% 30.06 in 10.0 mi West 13.8 mph 21.9 mph N/A   Overcast
7:53 AM 17.6 °F 5.0 °F 6.8 °F 63% 30.04 in 10.0 mi West 11.5 mph 21.9 mph N/A   Overcast
8:53 AM 18.0 °F 4.2 °F 7.0 °F 62% 30.81 in 10.0 mi NW 13.8 mph 26.5 mph N/A   Overcast
9:53 AM 19.9 °F 5.7 °F 7.0 °F 57% 30.82 in 10.0 mi WNW 16.1 mph 24.2 mph N/A   Mostly Cloudy
10:53 AM 19.9 °F 7.9 °F 7.0 °F 57% 30.84 in 10.0 mi NW 11.5 mph 27.6 mph N/A   Overcast
11:53 AM 21.0 °F 7.6 °F 5.0 °F 50% 30.13 in 10.0 mi WNW 15.0 mph 27.6 mph N/A   Overcast
12:53 PM 21.0 °F 8.1 °F 6.1 °F 53% 30.14 in 10.0 mi WNW 13.8 mph 20.7 mph N/A   Overcast
1:53 PM 21.9 °F 11.7 °F 8.1 °F 55% 30.16 in 10.0 mi NW 9.2 mph 23.0 mph N/A   Overcast
2:53 PM 21.9 °F 11.0 °F 9.0 °F 58% 30.17 in 9.0 mi West 10.4 mph 18.4 mph 0.00 in   Overcast
3:53 PM 23.0 °F 12.4 °F 9.0 °F 55% 30.18 in 10.0 mi West 10.4 mph 17.3 mph N/A   Overcast
4:53 PM 23.0 °F 11.7 °F 8.6 °F 54% 30.18 in 10.0 mi West 11.5 mph 20.7 mph N/A   Overcast
5:53 PM 21.9 °F 8.7 °F 10.0 °F 60% 30.96 in 8.0 mi West 15.0 mph 18.4 mph 0.00 in Snow Light Snow
6:53 PM 21.9 °F 9.2 °F 10.9 °F 63% 30.95 in 10.0 mi WNW 13.8 mph 17.3 mph 0.00 in   Overcast
7:53 PM 23.0 °F 14.7 °F 10.9 °F 60% 30.22 in 10.0 mi WNW 6.9 mph - N/A   Overcast
8:53 PM 23.0 °F 13.1 °F 12.0 °F 63% 30.23 in 10.0 mi NW 9.2 mph 19.6 mph 0.00 in   Overcast
9:53 PM 23.0 °F 12.4 °F 10.0 °F 58% 30.24 in 10.0 mi NW 10.4 mph 20.7 mph N/A   Overcast
10:38 PM 21.2 °F 10.9 °F 12.2 °F 68% 30.21 in 10.0 mi NW 9.2 mph 17.3 mph N/A   Overcast
10:53 PM 21.2 °F 10.9 °F 12.2 °F 68% 30.21 in 8.0 mi NNW 9.2 mph - N/A Snow Light Snow
11:53 PM 21.9 °F 11.0 °F 10.9 °F 63% 30.24 in 10.0 mi NW 10.4 mph 18.4 mph 0.00 in   Overcast